Lid_Strength_Index
12 12 11 12 12 12 13 13 16 13 13 13 11 10 8 7 7 7 7 6 6 5 5 4 4 4 4 3 3 2 2 2 3 3 3 2 2 2 2 1 1 1 2 2
14 12 12 13 11 11 12 11 12 12 13 10 9 7 7 7 7 7 7 6 5 5 5 4 4 4 4 3 4 2 2 3 2 2 2 2 2 2 1 1 1 2 2 2
17 13 13 16 13 12 11 10 11 14 11 9 8 9 9 8 7 7 6 6 5 5 4 4 4 4 4 4 2 3 3 2 2 2 2 2 2 2 2 2 2 3 3 3
17 15 20 13 10 10 12 10 10 11 10 9 9 8 7 7 7 6 6 5 5 4 4 4 4 4 4 3 3 3 3 2 2 2 2 2 2 3 3 3 3 3 4 4
18 18 15 13 11 12 13 13 10 11 9 9 8 8 8 6 6 6 5 4 4 3 4 4 4 4 3 3 3 3 3 3 2 2 2 2 2 3 3 3 4 4 4 4
16 19 21 14 11 8 9 16 9 9 9 9 8 12 10 6 5 5 4 4 4 4 4 5 5 3 4 4 3 3 3 2 2 2 2 3 3 3 3 3 2 2 4 3
16 17 15 11 10 8 16 15 9 8 9 9 10 9 7 5 5 5 4 4 3 4 5 5 4 3 4 4 4 3 2 2 2 2 2 2 3 3 3 3 3 3 3 3
15 17 19 10 10 13 10 9 8 8 7 8 7 6 6 6 5 5 5 4 4 5 5 5 4 3 4 4 3 3 2 2 3 2 2 2 3 3 3 3 3 3 4 4
14 14 11 9 9 8 7 9 8 8 7 6 7 6 6 6 6 5 5 4 4 5 5 5 4 3 4 4 4 2 3 3 2 2 2 2 3 3 3 4 4 4 3 3
12 10 9 9 8 7 7 8 8 8 7 6 7 7 7 6 5 5 4 4 4 5 5 5 4 3 3 4 3 2 3 3 2 2 3 3 2 3 3 3 3 3 3 3
11 9 9 8 8 8 8 8 8 7 7 7 7 7 7 7 6 5 4 4 4 4 5 5 5 3 3 3 2 3 3 3 3 2 2 3 4 4 2 3 3 3 3 2
13 9 10 9 8 8 8 8 8 8 7 7 6 7 7 6 6 5 4 4 4 4 4 4 5 3 2 3 2 2 3 3 3 3 3 3 5 7 12 11 12 11 7 4
8 6 7 7 7 7 7 7 7 7 6 7 6 6 7 7 6 6 5 4 4 4 4 4 4 4 2 3 2 2 3 3 3 3 3 5 6 6 7 9 13 13 11 9
5 6 7 7 8 7 6 6 6 6 6 6 6 5 6 7 6 5 6 5 5 3 3 4 4 4 3 3 2 2 3 7 3 3 3 4 6 7 7 6 4 5 11 10
6 5 5 5 4 5 6 6 6 7 6 6 6 5 6 6 6 6 5 4 4 3 4 4 4 4 3 4 2 2 2 3 2 2 3 4 5 6 6 5 5 5 8 10
5 5 5 5 5 5 6 7 7 7 6 6 5 5 5 6 6 5 5 4 4 5 4 4 4 4 4 4 4 2 2 5 5 3 3 3 4 5 5 6 5 6 5 5
8 7 6 7 6 6 7 6 6 6 6 6 6 5 5 5 5 6 5 4 4 4 5 5 5 3 3 4 3 3 2 4 7 3 3 3 3 4 4 5 5 5 4 6
5 5 6 6 7 7 7 6 6 6 7 6 5 5 6 7 7 7 5 4 6 6 6 6 7 7 5 6 5 4 4 3 3 3 3 3 3 3 4 4 4 5 5 6
5 5 4 4 5 7 7 7 7 7 7 7 7 7 7 7 8 7 6 8 8 9 9 6 9 8 7 9 10 5 4 4 3 3 3 6 5 4 3 3 4 4 5 5
4 4 4 4 5 7 7 7 6 7 7 8 8 8 8 8 8 8 7 8 9 8 9 8 7 8 7 8 10 4 4 4 4 4 4 5 4 4 3 7 3 4 4 5
4 4 5 5 5 6 7 7 7 7 7 8 9 9 9 8 8 9 9 10 10 9 9 9 9 9 9 11 8 4 3 3 3 4 4 5 5 6 5 4 4 3 3 4
4 4 5 5 5 6 7 7 7 8 8 8 9 9 9 9 9 9 9 11 11 14 10 8 9 12 11 12 6 6 3 2 3 4 4 4 4 5 5 5 5 4 3 2
4 4 4 5 5 6 6 7 7 8 8 9 9 9 9 10 10 11 11 10 10 13 9 10 14 15 13 6 5 5 5 3 3 3 3 4 4 4 4 5 5 4 4 5
4 4 4 5 6 6 7 8 7 8 8 9 9 9 9 10 10 10 10 12 13 13 11 13 14 15 12 8 7 6 7 6 5 3 3 8 3 4 4 4 5 5 5 7
4 3 3 5 6 7 7 8 8 7 8 9 9 9 9 9 10 11 11 11 13 12 11 13 14 14 10 10 9 9 9 11 10 8 8 8 8 7 6 5 4 4 5 5
4 4 4 4 5 6 7 8 9 8 9 9 9 9 9 10 10 10 11 12 11 12 11 11 12 11 11 11 11 11 11 12 12 11 11 11 11 11 10 9 8 7 7 5
5 6 5 5 5 6 6 7 8 9 9 9 10 9 10 10 10 11 12 11 12 12 12 12 12 12 12 12 12 12 12 12 14 13 12 13 13 12 11 11 10 10 9 10